カタログに戻る

SYRACUSE 4A

運用中軍事GEO
NORAD 49333·PAYLOAD·🇫🇷 France

打ち上げ Oct 24, 2021 から Guiana Space Centre

Loading…

TLE

最新Source: Space-Track

元期: Sep 14, 2026, 14:01 UTC

1 49333U 21095B   26257.58411439  .00000127  00000-0  00000-0 0  9996
2 49333   0.0191 202.9431 0001444 326.5748  79.8365  1.00270884 18843

AllMySatでSYRACUSE 4Aをリアルタイム追跡

Download on the App Store